This is the latest recevied weather packets stored in our database for station/object HG8LXL-2. If no packets are shown the sender has not sent any weather packets the latest 10 day(s).
| Time | Temp. | Humidity | Pressure | Rain* | Wind** | Luminosity | Snow |
|---|---|---|---|---|---|---|---|
| 1788235851 | 23.33° C | 62% | 1012.9 hPa | - | - | - | - |
| 1788235551 | 22.78° C | 64% | 1013 hPa | - | - | - | - |
| 1788235251 | 23.89° C | 61% | 1012.9 hPa | - | - | - | - |
| 1788234951 | 23.33° C | 64% | 1012.9 hPa | - | - | - | - |
| 1788234651 | 23.33° C | 65% | 1012.9 hPa | - | - | - | - |
| 1788234353 | 22.22° C | 67% | 1012.9 hPa | - | - | - | - |
| 1788234051 | 22.78° C | 68% | 1012.9 hPa | - | - | - | - |
| 1788233751 | 22.78° C | 68% | 1012.8 hPa | - | - | - | - |
| 1788233459 | 22.78° C | 67% | 1012.8 hPa | - | - | - | - |
| 1788233151 | 22.78° C | 69% | 1012.8 hPa | - | - | - | - |
| 1788232851 | 22.78° C | 69% | 1012.8 hPa | - | - | - | - |
| 1788232553 | 22.22° C | 69% | 1012.8 hPa | - | - | - | - |
| 1788232251 | 23.33° C | 66% | 1012.7 hPa | - | - | - | - |
| 1788231951 | 23.33° C | 67% | 1012.5 hPa | - | - | - | - |
| 1788231651 | 23.33° C | 67% | 1012.6 hPa | - | - | - | - |
| 1788231351 | 23.33° C | 64% | 1012.5 hPa | - | - | - | - |
| 1788231051 | 23.33° C | 65% | 1012.6 hPa | - | - | - | - |
| 1788230753 | 22.78° C | 69% | 1012.7 hPa | - | - | - | - |
| 1788230451 | 22.78° C | 70% | 1012.7 hPa | - | - | - | - |
| 1788230151 | 22.78° C | 67% | 1012.8 hPa | - | - | - | - |
| 1788229851 | 23.89° C | 63% | 1012.8 hPa | - | - | - | - |
| 1788229551 | 23.89° C | 64% | 1012.8 hPa | - | - | - | - |
| 1788229251 | 22.78° C | 68% | 1013 hPa | - | - | - | - |
| 1788228951 | 22.78° C | 66% | 1012.9 hPa | - | - | - | - |
| 1788228651 | 23.89° C | 61% | 1012.8 hPa | - | - | - | - |
* Rain since midnight (hover to see other rain measurements)
** Current wind speed in m/s (hover to see current wind gust speed)